This is the latest recevied weather packets stored in our database for station/object VE1UHF-4. If no packets are shown the sender has not sent any weather packets the latest 1 day(s).
| Time | Temp. | Humidity | Pressure | Rain* | Wind** | Luminosity | Snow |
|---|---|---|---|---|---|---|---|
| 1777997028 | 20.56° C | 89% | 1003.6 hPa | 0 mm | 0 m/s | - | - |
| 1777996128 | 20° C | 89% | 1003.6 hPa | 0 mm | 0 m/s | - | - |
| 1777995228 | 19.44° C | 89% | 1003.9 hPa | 0 mm | 0 m/s | - | - |
| 1777994327 | 18.33° C | 89% | 1003.7 hPa | 0 mm | 0 m/s | - | - |
| 1777992526 | 16.67° C | 89% | 1003.6 hPa | 0 mm | 0 m/s | - | - |
| 1777991625 | 15.56° C | 89% | 1003.8 hPa | 0 mm | 0 m/s | - | - |
| 1777990726 | 14.44° C | 89% | 1003.8 hPa | 0 mm | 0 m/s | - | - |
| 1777989824 | 13.89° C | 89% | 1003.8 hPa | 0 mm | 0 m/s | - | - |
| 1777988924 | 12.78° C | 88% | 1003.5 hPa | 0 mm | 0 m/s | - | - |
| 1777987123 | 11.67° C | 87% | 1003.8 hPa | 0 mm | 0 m/s | - | - |
| 1777986222 | 11.67° C | 87% | 1003.8 hPa | 0 mm | 0 m/s | - | - |
| 1777982620 | 10° C | 86% | 1004.2 hPa | 0 mm | 0 m/s | - | - |
| 1777981719 | 10° C | 85% | 1004.1 hPa | 0 mm | 0 m/s | - | - |
| 1777980819 | 9.44° C | 85% | 1004.1 hPa | 0 mm | 0 m/s | - | - |
| 1777979918 | 9.44° C | 85% | 1003.9 hPa | 0 mm | 0 m/s | - | - |
| 1777979017 | 9.44° C | 85% | 1003.9 hPa | 0 mm | 0 m/s | - | - |
| 1777977218 | 8.89° C | 84% | 1003.9 hPa | 0 mm | 0 m/s | - | - |
| 1777976316 | 8.89° C | 84% | 1003.2 hPa | 0 mm | 0 m/s | - | - |
| 1777975417 | 8.89° C | 83% | 1003.5 hPa | 0 mm | 0 m/s | - | - |
| 1777973614 | 8.89° C | 82% | 1003 hPa | 0 mm | 0 m/s | - | - |
| 1777972714 | 8.89° C | 82% | 1003 hPa | 0 mm | 0 m/s | - | - |
| 1777971813 | 8.89° C | 81% | 1002.9 hPa | 0 mm | 0 m/s | - | - |
| 1777970012 | 8.89° C | 81% | 1002.6 hPa | 0 mm | 0 m/s | - | - |
| 1777969111 | 8.89° C | 81% | 1002.9 hPa | 0 mm | 0 m/s | - | - |
| 1777968211 | 8.89° C | 81% | 1002.9 hPa | 0 mm | 0 m/s | - | - |
* Rain since midnight (hover to see other rain measurements)
** Current wind speed in m/s (hover to see current wind gust speed)